Date,TemperatureHighF,TemperatureAvgF,TemperatureLowF,DewpointHighF,DewpointAvgF,DewpointLowF,HumidityHigh,HumidityAvg,HumidityLow,PressureMaxIn,PressureMinIn,WindSpeedMaxMPH,WindSpeedAvgMPH,GustSpeedMaxMPH,PrecipitationSumIn
2013-1-1,29.9,27.3,23.9,17.9,15.1,12.4,62,60,57,29.86,29.77,19,13,30,0.00
2013-1-6,37.1,33.5,28.8,28.2,26.5,23.9,83,75,70,30.07,29.97,8,3,16,0.07
2013-1-7,30.9,29.4,28.3,28.3,25.5,23.8,92,85,82,30.10,30.01,4,3,16,0.00
2013-1-8,34.9,32.0,30.5,26.4,25.5,24.7,80,77,71,30.40,30.38,2,1,16,0.08
2013-1-9,39.9,33.4,23.8,34.2,28.0,21.5,93,81,60,30.41,30.04,12,3,19,0.15
2013-1-10,41.1,36.2,29.3,29.1,24.7,22.3,75,63,53,30.56,30.11,20,6,45,0.02
2013-1-11,34.1,30.1,24.8,32.9,25.7,20.3,96,84,72,30.56,30.23,4,2,20,0.01
2013-1-12,40.4,37.2,33.9,39.5,36.4,32.9,98,97,96,30.23,30.14,3,1,20,0.03
2013-1-13,46.9,42.0,36.9,46.4,41.5,36.4,98,98,98,30.17,30.01,5,1,20,0.01
2013-1-14,49.9,43.7,33.5,49.4,38.9,26.1,99,84,52,30.27,29.89,13,5,21,0.01
2013-1-15,34.9,31.9,28.4,26.3,24.4,22.6,83,74,65,30.34,30.23,7,2,20,0.00
2013-1-16,30.8,29.5,26.9,30.0,27.3,23.3,97,92,76,30.27,29.84,3,1,20,0.00
2013-1-17,35.5,30.0,23.9,31.5,25.1,12.4,97,83,61,30.12,29.86,9,4,20,0.06
2013-1-18,23.9,17.6,13.0,13.1,3.6,-2.6,66,54,43,30.48,30.06,14,4,23,0.00
2013-1-19,40.4,32.6,19.7,30.1,21.6,7.3,72,64,57,30.40,29.89,12,6,21,0.05
2013-1-20,45.5,35.7,23.3,31.0,24.0,9.7,75,63,37,29.95,29.58,16,8,24,0.03
2013-1-21,23.3,19.3,14.7,16.9,11.1,5.6,91,71,56,30.10,29.80,16,3,27,0.00
2013-1-22,18.2,13.8,6.7,15.9,4.5,-3.0,92,68,43,30.13,29.79,13,5,22,0.00
2013-1-23,10.1,4.7,-1.3,0.0,-6.1,-9.3,74,61,46,30.20,30.09,13,6,21,0.00
2013-1-24,13.6,5.0,-3.3,-3.3,-7.3,-9.9,74,57,42,30.31,30.13,15,7,23,0.00
2013-1-25,16.9,9.7,3.7,4.5,-4.8,-8.3,64,51,42,30.38,30.15,14,5,21,0.00
2013-1-30,56.6,55.4,54.2,55.4,53.9,53.1,100,95,93,29.66,29.43,10,6,17,0.12
2013-1-31,59.0,43.7,26.5,57.5,36.7,12.1,96,77,51,29.59,28.97,17,9,33,0.74
2013-2-1,26.5,22.4,17.3,15.1,10.0,5.2,72,59,48,30.12,29.59,14,7,33,0.00
2013-2-2,25.6,19.2,11.6,15.0,7.2,2.2,86,60,45,30.27,30.07,12,5,28,0.00
2013-2-3,24.6,19.7,14.5,17.4,15.3,12.1,91,83,72,30.09,29.77,5,1,28,0.00
2013-2-4,24.4,18.2,14.1,12.8,10.9,7.5,87,74,51,29.99,29.77,14,6,28,0.00
2013-2-5,27.6,20.8,16.4,19.4,14.0,9.3,91,75,61,30.05,29.94,4,1,28,0.00
2013-2-6,31.8,24.6,18.1,24.3,16.3,3.9,93,73,46,30.33,29.94,13,4,28,0.00
2013-2-7,27.9,20.5,11.4,9.0,6.6,5.0,76,56,41,30.55,30.33,7,2,28,0.00
2013-2-8,25.7,22.9,20.9,22.4,16.4,5.7,92,77,50,30.50,30.25,9,6,28,0.00
2013-4-7,53.2,46.0,35.2,38.5,31.1,19.5,88,58,36,30.32,29.99,7,4,18,0.00
2013-4-8,62.0,49.6,39.8,41.6,37.8,32.9,97,68,38,30.09,29.98,9,2,14,0.00
2013-4-9,64.1,53.8,43.4,53.1,43.8,37.1,97,71,51,30.05,29.88,12,4,20,0.00
2013-4-10,62.1,52.6,44.7,52.1,47.2,41.4,96,83,62,30.00,29.83,6,2,13,0.00
2013-4-11,51.9,45.3,36.2,48.1,38.7,28.4,96,79,59,30.14,29.83,8,2,12,0.00
2013-4-12,36.3,34.5,33.4,33.7,32.8,31.6,96,93,87,30.15,29.81,12,6,20,0.00
2013-4-13,50.0,40.3,32.7,37.8,34.4,31.4,96,81,56,29.97,29.77,10,3,16,0.00
2013-4-14,46.6,40.3,32.3,37.4,31.1,24.8,93,71,49,30.25,29.93,14,5,25,0.00
2013-4-15,58.3,44.4,30.8,36.6,31.2,24.5,84,61,42,30.41,30.25,5,2,8,0.00
2013-4-16,64.2,49.4,35.2,50.8,41.5,28.8,91,75,51,30.41,30.09,12,4,20,0.00
2013-4-17,62.2,53.0,45.6,50.7,37.5,28.9,96,59,32,30.35,30.10,9,4,20,0.00
2013-4-18,60.8,50.2,38.8,45.3,34.3,28.3,85,56,39,30.42,30.14,6,3,20,0.00
2013-4-19,70.3,60.3,49.6,62.1,56.8,45.6,97,89,70,30.15,29.63,12,4,21,0.00
2013-4-20,62.5,47.7,36.0,60.8,37.7,22.8,97,71,42,30.26,29.60,13,7,20,0.00
2013-4-21,50.3,39.0,29.2,27.5,21.5,18.3,71,51,32,30.68,30.26,12,4,21,0.00
2013-4-22,50.4,40.5,31.7,32.9,27.9,23.0,81,63,37,30.75,30.59,10,5,22,0.00
2013-4-26,60.8,52.8,42.7,39.3,34.6,28.9,67,51,34,30.42,30.32,7,3,20,0.00
2013-4-27,64.7,50.5,36.0,40.5,35.1,30.7,86,58,34,30.43,30.24,5,1,10,0.00
2013-4-28,69.8,53.4,37.9,41.5,36.8,30.2,87,57,32,30.35,30.17,8,2,13,0.00
2013-4-29,66.1,53.4,44.9,46.0,36.2,22.8,84,55,29,30.27,30.19,5,1,10,0.00
2013-4-30,69.9,57.2,46.7,38.2,32.0,23.2,72,41,24,30.35,30.23,4,1,10,0.00
2013-5-1,71.1,56.3,40.9,44.6,34.3,25.6,76,45,30,30.47,30.35,5,2,12,0.00
2013-5-2,76.1,58.2,44.2,45.2,40.6,33.4,80,56,29,30.46,30.29,9,3,16,0.00
2013-5-3,62.3,51.6,40.3,45.4,40.0,34.8,82,65,50,30.52,30.37,8,3,12,0.00
2013-6-7,55.9,53.4,50.4,55.3,52.6,49.6,98,97,97,30.01,29.80,5,3,10,0.00
2013-6-8,71.3,59.4,50.1,64.2,56.0,49.3,98,89,73,30.03,29.65,7,2,13,0.00
2013-6-9,74.1,63.7,53.3,59.9,55.8,52.1,96,77,51,30.17,30.03,5,2,10,0.00
2013-6-10,67.3,60.0,54.8,62.0,57.2,52.5,98,91,72,30.19,29.94,5,2,12,0.00
2013-6-11,64.5,57.6,54.2,62.1,56.7,53.6,98,97,91,29.95,29.56,5,1,9,0.00
2013-6-12,65.0,59.7,54.9,57.2,53.8,50.6,98,81,65,29.83,29.59,9,4,19,0.00
2013-6-13,57.8,53.2,50.6,51.3,49.8,48.7,94,88,77,29.83,29.81,2,1,7,0.00
2013-6-17,61.8,61.5,61.1,59.4,58.9,58.5,92,91,90,29.84,29.83,6,4,8,0.02
2013-7-1,73.6,71.9,70.1,72.7,70.8,68.7,98,97,95,30.05,29.97,3,1,11,0.99
2013-7-2,79.0,73.5,70.2,73.3,70.8,69.0,98,92,81,30.16,30.05,3,1,11,0.02
2013-7-3,82.5,75.1,70.5,75.0,71.4,68.5,96,88,73,30.20,30.12,5,2,11,0.02
2013-7-4,86.0,77.9,70.6,76.1,73.0,69.7,98,86,67,30.20,30.09,4,1,11,0.00
2013-7-5,87.7,79.6,71.9,76.2,73.2,70.1,95,82,63,30.16,30.03,3,1,11,0.00
2013-7-6,81.9,75.8,72.1,75.5,72.4,70.3,95,89,77,30.08,30.05,3,1,11,0.00
2013-7-17,85.1,79.9,76.3,75.5,73.1,71.7,88,80,72,30.03,30.00,1,0,3,0.00
2013-7-18,89.5,80.5,72.4,77.1,73.1,69.8,92,79,60,30.01,29.92,3,1,8,0.00
2013-7-19,90.0,81.9,73.4,78.4,74.5,71.3,94,79,60,29.93,29.71,5,2,9,0.00
2013-7-20,85.2,78.2,67.8,76.3,72.7,63.5,93,83,70,29.81,29.66,6,1,13,0.08
2013-7-21,81.5,72.7,63.9,69.0,64.6,60.4,93,77,57,29.97,29.81,3,0,7,0.00
2013-7-22,81.4,72.9,65.0,71.8,68.1,63.8,97,85,67,29.99,29.83,3,1,6,0.00
2013-7-23,79.6,71.3,68.4,75.9,70.1,67.3,99,96,81,29.83,29.53,5,1,13,2.52
2013-7-24,76.6,71.2,62.4,70.6,65.4,55.4,99,83,64,29.94,29.58,5,2,13,0.00
2013-7-25,62.3,58.4,54.5,57.5,53.2,47.1,95,83,70,30.08,29.94,3,1,9,0.01
2013-7-26,67.0,62.3,58.7,63.2,59.5,57.2,97,91,79,30.05,29.97,5,2,10,0.32
2013-7-27,78.6,67.6,58.1,67.5,62.4,56.7,98,85,58,30.06,29.98,2,0,5,0.00
2013-7-28,78.7,68.8,60.6,70.0,64.8,59.3,98,88,68,30.00,29.94,2,0,5,0.00
2013-7-29,82.0,71.8,65.7,69.8,65.3,59.3,97,82,56,30.04,29.95,4,1,7,0.00
2013-7-30,76.2,67.5,59.5,61.4,58.2,53.8,88,73,55,30.11,30.04,7,3,13,0.00
2013-7-31,77.0,67.3,57.6,62.4,58.5,55.4,93,75,51,30.15,30.05,4,1,6,0.00
2013-9-12,77.9,77.8,77.5,71.7,71.5,71.2,82,81,80,29.71,29.70,1,1,4,0.00
2013-10-7,-200.0,0.0,200.0,-99.9,-99.9,-99.9,0,0,100,29.92,29.78,0,-999,0,0.00
2013-10-8,60.0,11.5,57.0,43.5,-72.3,-99.9,58,10,49,30.37,29.91,6,-804,12,0.00
2013-10-9,59.0,21.2,46.8,46.8,-44.6,-99.9,83,26,60,30.47,30.36,5,-616,10,0.00
2013-10-10,57.2,20.5,44.3,51.7,-42.8,-99.9,96,33,80,30.36,30.18,2,-617,5,0.00
2013-10-11,67.2,25.1,51.3,57.2,-39.7,-99.9,90,27,43,30.18,30.08,4,-601,10,0.00
2013-10-12,55.8,18.4,53.5,53.5,-48.7,-99.9,95,31,87,30.39,30.14,5,-663,11,0.00
2013-10-13,55.5,19.9,46.7,48.9,-44.8,-99.9,93,31,76,30.45,30.37,5,-622,8,0.00
2013-10-14,61.6,23.9,38.6,48.6,-36.7,-99.9,97,31,52,30.41,30.25,2,-565,4,0.00
2013-11-8,-200.0,0.0,200.0,-99.9,-99.9,-99.9,0,0,100,30.12,30.00,0,-999,23,0.00
2013-11-9,40.6,12.8,30.2,28.0,-57.0,-99.9,76,21,55,30.25,30.03,8,-651,23,0.00
2013-11-10,47.4,13.0,41.4,38.1,-61.0,-99.9,83,21,65,30.03,29.78,9,-710,23,0.00
2013-11-11,-200.0,0.0,200.0,-99.9,-99.9,-99.9,0,0,100,30.12,29.88,0,-999,23,0.00
2013-11-12,30.4,7.7,28.5,18.3,-69.2,-99.9,64,16,56,30.23,29.87,13,-735,23,0.00
2013-11-13,31.2,3.3,28.1,12.7,-87.4,-99.9,51,5,44,30.33,30.19,15,-887,23,0.00
2013-11-14,48.6,14.4,31.0,26.0,-57.8,-99.9,62,16,40,30.20,30.08,8,-655,23,0.00
2013-11-15,58.7,17.7,40.1,23.0,-59.9,-99.9,47,9,19,30.23,30.12,6,-664,23,0.00
2013-11-16,56.1,30.0,37.6,36.3,-15.9,-99.9,84,37,46,30.33,30.18,4,-363,23,0.00
2013-11-17,55.7,46.8,35.9,55.1,44.5,31.4,98,92,81,30.32,29.82,4,2,23,0.00
2013-11-18,60.4,55.0,42.2,59.2,46.1,31.1,98,74,50,29.82,29.54,12,5,23,0.18
2013-11-19,42.8,35.2,27.0,31.1,22.8,17.5,69,60,52,30.34,29.68,15,8,26,0.00
2013-11-20,37.4,28.9,23.1,17.6,15.2,12.2,71,57,42,30.66,30.33,10,3,23,0.00
2013-11-21,42.6,32.9,19.9,33.8,21.7,11.0,81,63,43,30.68,30.41,6,1,23,0.00
2013-11-22,45.0,42.3,39.2,44.2,40.2,33.8,97,92,81,30.41,29.96,3,1,23,0.19
2013-11-23,36.9,30.2,22.1,23.6,20.5,18.2,88,68,52,29.89,29.84,12,7,20,0.00
2013-11-24,22.2,18.3,14.4,19.0,5.6,-0.0,88,58,39,30.28,29.86,18,11,32,0.00
2013-11-25,29.4,21.0,11.3,16.1,6.7,-1.9,62,54,40,30.44,30.27,13,6,32,0.00
2013-11-26,34.7,30.4,24.6,33.3,22.3,13.5,96,73,54,30.37,30.04,7,2,32,0.17
2013-11-27,59.0,43.6,32.7,58.4,42.6,29.0,98,96,86,30.04,29.28,12,6,32,1.19
2013-11-28,32.8,24.3,17.3,29.0,15.0,8.2,88,68,47,30.48,29.53,17,8,32,0.02
2013-11-29,30.0,22.5,16.2,16.1,12.6,6.1,84,66,48,30.78,30.48,9,3,32,0.00
2013-11-30,19.7,14.8,12.3,9.8,6.3,4.9,75,69,64,30.83,30.76,2,0,32,0.00
2013-12-14,16.8,14.0,12.1,14.6,11.6,9.2,91,90,88,30.37,30.13,9,6,16,0.00
2013-12-15,27.1,23.0,16.8,25.9,20.9,14.6,95,91,83,30.12,29.51,12,5,20,0.00
2013-12-16,22.6,19.0,11.6,18.8,11.0,5.3,89,71,52,30.24,29.76,14,6,23,0.00
2013-12-17,14.8,9.8,3.1,12.6,6.6,-0.4,91,87,76,30.29,29.99,7,2,12,0.00
2013-12-18,28.4,20.7,13.4,20.9,16.6,10.9,91,84,73,30.13,29.96,11,4,19,0.00
2013-12-19,38.0,30.0,22.6,26.0,22.4,18.3,86,74,59,30.15,30.00,13,4,20,0.03
2013-12-20,48.5,39.3,31.0,33.8,30.0,24.9,81,70,55,30.15,29.94,6,2,12,0.55
2013-12-21,55.5,48.6,39.1,49.6,41.2,32.1,89,76,62,29.99,29.87,9,4,13,0.00
2013-12-22,63.2,58.6,52.4,59.5,55.5,49.3,97,89,78,29.93,29.71,11,6,20,0.01
2013-12-23,39.1,36.2,33.9,38.2,35.1,30.7,97,96,87,30.12,29.96,9,3,15,0.30
2013-12-24,33.9,27.9,19.9,30.6,20.5,10.5,88,74,61,30.26,30.08,12,4,20,0.02
2013-12-25,20.2,15.5,10.7,10.5,5.2,1.6,74,64,50,30.56,30.25,17,4,23,0.00
2013-12-26,27.7,21.2,13.9,25.7,17.6,6.9,94,86,71,30.51,30.14,5,2,9,0.00
2013-12-27,30.4,24.3,18.6,22.0,18.0,-99.9,93,80,66,30.32,30.23,5,-8,11,0.00
2013-12-28,41.8,28.1,23.9,28.5,22.4,19.8,85,79,59,30.26,30.04,8,4,15,0.06
2013-12-29,38.8,36.3,34.1,36.2,34.4,33.1,96,93,81,29.89,29.46,6,2,15,0.40
2013-12-30,36.4,24.7,12.8,33.2,15.0,6.9,93,67,50,30.19,29.78,15,7,22,0.25
2013-12-31,20.7,15.3,8.6,15.1,8.4,2.9,86,74,52,30.23,30.05,13,3,22,0.00
2014-1-1,24.0,17.7,12.8,12.2,8.2,4.6,81,66,52,30.41,30.23,11,3,18,0.00
2014-1-2,16.9,10.7,0.9,13.8,7.3,-2.6,89,86,82,30.36,29.85,8,4,15,0.00